Weather History for KDVP - April, 2014

Change the Weather History Date:

Wednesday, April 30, 2014

  Actual Average (KOTG) Record (KOTG)
Temperature  
Mean Temperature 37 °F -  
Max Temperature 41 °F 61 °F 89 °F (2007)
Min Temperature 34 °F 40 °F 27 °F (1984)
Degree Days  
Heating Degree Days 28    
Moisture  
Dew Point 36 °F    
Average Humidity 95    
Maximum Humidity 100    
Minimum Humidity 87    
Precipitation  
Precipitation 0.01 in - - ()
Sea Level Pressure  
Sea Level Pressure 29.84 in    
Wind  
Wind Speed 17 mph (NNW)    
Max Wind Speed 24 mph    
Max Gust Speed 33 mph    
Visibility 7 miles    
Events Rain    
Averages and records for this station are not official NWS values.
T = Trace of Precipitation, MM = Missing Value Source: NWS Daily Summary

Daily Weather History Graph

Daily Weather History Graph

Search for Another Location

Airport or City:

Trip Planner

Search our weather history database for the weather conditions in past years. The results will help you decide how hot, cold, wet, or windy it might be!

Date:

Astronomy

Apr. 30, 2014 Rise Set
Actual Time 6:16 AM CDT 8:25 PM CDT
Civil Twilight 5:44 AM CDT 8:56 PM CDT
Nautical Twilight 5:05 AM CDT 9:36 PM CDT
Astronomical Twilight 4:22 AM CDT 10:19 PM CDT
Moon 7:16 AM CDT (4/30) 10:06 PM CDT (4/30)
Length of Visible Light 15h 12m
Length of Day
14h 09m
New Moon, 2% of the Moon is Illuminated
Apr 30
New Moon
May 6
First Quarter
May 14
Full
May 21
Last Quarter
May 28
New

Hourly Weather History & Observations

Time (CDT) Temp. Windchill Dew Point Humidity Pressure Visibility Wind Dir Wind Speed Gust Speed Precip Events Conditions
12:12 AM 38.3 °F 30.5 °F 36.5 °F 93% 29.83 in 7.0 mi NNW 12.7 mph 19.6 mph N/A   Drizzle
12:33 AM 38.3 °F 30.1 °F 37.2 °F 96% 29.83 in 7.0 mi NNW 13.8 mph - N/A Rain Rain
12:53 AM 37.9 °F 30.5 °F 37.0 °F 97% 29.83 in 10.0 mi NNW 11.5 mph - 0.01 in Rain Light Rain
1:12 AM 38.1 °F 30.2 °F 37.4 °F 97% 29.83 in 10.0 mi NNW 12.7 mph - N/A Rain Light Rain
1:32 AM 38.3 °F 29.0 °F 36.5 °F 93% 29.82 in 10.0 mi NNW 17.3 mph 20.7 mph N/A   Light Drizzle
1:52 AM 38.3 °F 29.7 °F 36.5 °F 93% 29.82 in 10.0 mi NNW 15.0 mph - N/A Rain Light Rain
2:13 AM 37.6 °F 28.1 °F 36.1 °F 95% 29.82 in 7.0 mi NNW 17.3 mph - N/A Rain Light Rain
2:32 AM 37.4 °F 29.3 °F 36.5 °F 97% 29.82 in 10.0 mi NNW 12.7 mph - N/A   Light Drizzle
2:53 AM 37.6 °F 30.5 °F 36.7 °F 97% 29.82 in 10.0 mi NNW 10.4 mph - N/A   Drizzle
3:14 AM 37.4 °F 27.8 °F 36.0 °F 95% 29.82 in 10.0 mi NNW 17.3 mph - N/A   Drizzle
3:33 AM 37.0 °F 28.9 °F 36.0 °F 96% 29.82 in 10.0 mi NNW 12.7 mph - N/A   Light Drizzle
3:52 AM 36.9 °F 28.2 °F 36.0 °F 97% 29.82 in 10.0 mi North 13.8 mph - N/A   Drizzle
4:13 AM 36.5 °F 28.2 °F 36.0 °F 98% 29.82 in 10.0 mi NNW 12.7 mph 17.3 mph N/A   Drizzle
4:33 AM 36.5 °F 27.4 °F 35.6 °F 97% 29.82 in 7.0 mi NNW 15.0 mph - N/A   Drizzle
4:53 AM 36.1 °F 28.2 °F 35.6 °F 98% 29.82 in 7.0 mi NNW 11.5 mph - N/A   Drizzle
5:14 AM 36.0 °F 26.7 °F 35.4 °F 98% 29.81 in 10.0 mi NNW 15.0 mph 20.7 mph N/A   Drizzle
5:32 AM 35.8 °F 26.5 °F 35.2 °F 98% 29.82 in 10.0 mi NNW 15.0 mph 18.4 mph N/A   Light Drizzle
5:53 AM 35.2 °F 26.6 °F 34.7 °F 98% 29.82 in 10.0 mi NNW 12.7 mph 23.0 mph N/A   Light Drizzle
6:14 AM 34.9 °F 25.7 °F 34.7 °F 99% 29.83 in 5.0 mi NNW 13.8 mph 18.4 mph N/A   Light Drizzle
6:34 AM 34.7 °F 25.5 °F 34.7 °F 100% 29.83 in 5.0 mi NNW 13.8 mph - N/A   Drizzle
6:53 AM 34.3 °F 24.2 °F 34.2 °F 99% 29.83 in 5.0 mi NNW 16.1 mph 23.0 mph N/A Rain Light Rain
7:12 AM 34.2 °F 25.7 °F 34.2 °F 100% 29.83 in 5.0 mi NNW 11.5 mph - N/A Rain Light Rain
7:33 AM 34.7 °F 25.5 °F 34.7 °F 100% 29.83 in 5.0 mi NNW 13.8 mph 23.0 mph N/A Rain Light Rain
7:53 AM 35.1 °F 24.8 °F 34.9 °F 99% 29.83 in 5.0 mi NNW 17.3 mph 20.7 mph N/A Rain Light Rain
8:12 AM 35.4 °F 26.0 °F 34.9 °F 98% 29.83 in 7.0 mi NNW 15.0 mph 23.0 mph N/A   Light Drizzle
8:34 AM 35.8 °F 25.4 °F 35.1 °F 97% 29.83 in 5.0 mi NNW 18.4 mph 26.5 mph N/A   Overcast
8:54 AM 36.1 °F 25.5 °F 35.2 °F 97% 29.83 in 7.0 mi NNW 19.6 mph 24.2 mph N/A   Light Drizzle
9:13 AM 36.7 °F 25.7 °F 35.8 °F 97% 29.83 in 7.0 mi NNW 21.9 mph 28.8 mph N/A Rain Light Rain
9:33 AM 37.2 °F 27.0 °F 36.0 °F 95% 29.83 in 5.0 mi NNW 19.6 mph 29.9 mph N/A Rain Light Rain
10:13 AM 37.8 °F 27.4 °F 36.5 °F 95% 29.83 in 5.0 mi NNW 20.7 mph 28.8 mph N/A Rain Light Rain
10:33 AM 37.8 °F 26.6 °F 36.3 °F 95% 29.83 in 5.0 mi NNW 24.2 mph 33.4 mph N/A   Overcast
10:53 AM 38.1 °F 27.1 °F 36.5 °F 94% 29.83 in 5.0 mi NNW 24.2 mph 33.4 mph N/A   Light Drizzle
11:12 AM 38.1 °F 27.9 °F 36.5 °F 94% 29.84 in 5.0 mi NNW 20.7 mph 28.8 mph N/A   Light Drizzle
11:34 AM 38.1 °F 27.9 °F 36.5 °F 94% 29.84 in 5.0 mi NNW 20.7 mph 26.5 mph N/A   Light Drizzle
11:52 AM 38.1 °F 27.9 °F 36.7 °F 95% 29.84 in 5.0 mi NNW 20.7 mph 28.8 mph N/A   Light Drizzle
12:12 PM 38.3 °F 28.4 °F 36.3 °F 93% 29.84 in 7.0 mi NNW 19.6 mph 29.9 mph N/A   Overcast
12:32 PM 38.5 °F 27.8 °F 36.7 °F 93% 29.83 in 10.0 mi NNW 23.0 mph 28.8 mph N/A   Overcast
12:53 PM 38.8 °F 28.8 °F 36.9 °F 93% 29.84 in 10.0 mi NNW 20.7 mph 27.6 mph N/A   Overcast
1:12 PM 39.2 °F 29.8 °F 37.0 °F 92% 29.83 in 10.0 mi NNW 18.4 mph 26.5 mph N/A   Overcast
1:32 PM 39.0 °F 28.5 °F 36.5 °F 91% 29.83 in 10.0 mi NNW 23.0 mph 31.1 mph N/A   Overcast
1:53 PM 39.6 °F 29.5 °F 36.7 °F 89% 29.84 in 10.0 mi NNW 21.9 mph 27.6 mph N/A   Overcast
2:13 PM 39.7 °F 29.2 °F 36.9 °F 89% 29.84 in 10.0 mi NNW 24.2 mph 31.1 mph N/A   Overcast
2:32 PM 39.7 °F 29.2 °F 36.7 °F 89% 29.85 in 10.0 mi NNW 24.2 mph 31.1 mph N/A   Overcast
2:53 PM 40.3 °F 30.2 °F 37.4 °F 89% 29.85 in 10.0 mi NW 23.0 mph 28.8 mph N/A   Overcast
3:13 PM 40.3 °F 30.2 °F 37.2 °F 89% 29.85 in 10.0 mi NNW 23.0 mph 29.9 mph N/A   Overcast
3:33 PM 40.6 °F 30.7 °F 37.2 °F 88% 29.85 in 10.0 mi NNW 23.0 mph 28.8 mph N/A   Overcast
3:53 PM 40.3 °F 31.0 °F 36.9 °F 88% 29.85 in 10.0 mi NNW 19.6 mph 27.6 mph N/A   Overcast
4:12 PM 40.5 °F 31.2 °F 36.9 °F 87% 29.85 in 10.0 mi NNW 19.6 mph 28.8 mph N/A   Overcast
4:33 PM 40.5 °F 31.2 °F 37.0 °F 88% 29.85 in 10.0 mi NW 19.6 mph 26.5 mph N/A   Overcast
4:53 PM 40.1 °F 30.7 °F 36.9 °F 88% 29.86 in 10.0 mi NW 19.6 mph 29.9 mph N/A   Overcast
5:13 PM 40.5 °F 30.9 °F 37.6 °F 89% 29.85 in 10.0 mi NW 20.7 mph - N/A   Overcast
5:32 PM 40.1 °F 30.5 °F 37.4 °F 90% 29.86 in 10.0 mi NW 20.7 mph 28.8 mph N/A   Overcast
5:52 PM 40.1 °F 29.9 °F 37.0 °F 89% 29.85 in 10.0 mi NW 23.0 mph 31.1 mph N/A   Overcast
6:12 PM 40.1 °F 29.9 °F 36.9 °F 88% 29.86 in 10.0 mi NW 23.0 mph 31.1 mph N/A   Overcast
6:34 PM 39.4 °F 30.1 °F 37.0 °F 91% 29.86 in 10.0 mi NW 18.4 mph 28.8 mph N/A   Overcast
6:54 PM 38.7 °F 28.0 °F 37.0 °F 94% 29.86 in 4.0 mi NW 23.0 mph 31.1 mph N/A   Overcast
7:13 PM 38.5 °F 29.2 °F 37.2 °F 95% 29.86 in 5.0 mi NNW 17.3 mph 23.0 mph N/A   Overcast
7:32 PM 38.7 °F 29.1 °F 37.0 °F 94% 29.86 in 7.0 mi NW 18.4 mph 26.5 mph N/A   Overcast
8:11 PM 38.3 °F 28.4 °F 37.4 °F 97% 29.86 in 4.0 mi NNW 19.6 mph 27.6 mph N/A   Overcast
8:32 PM 38.3 °F 28.4 °F 37.0 °F 95% 29.86 in 5.0 mi NW 19.6 mph 31.1 mph N/A   Overcast
8:51 PM 38.1 °F 27.6 °F 37.4 °F 97% 29.86 in 5.0 mi NNW 21.9 mph 26.5 mph N/A   Overcast
9:14 PM 37.8 °F 27.4 °F 37.4 °F 99% 29.86 in 3.0 mi NNW 20.7 mph 28.8 mph N/A   Light Drizzle
9:33 PM 37.6 °F 27.4 °F 37.4 °F 99% 29.86 in 4.0 mi NNW 19.6 mph 26.5 mph N/A   Overcast
9:53 PM 37.6 °F 28.1 °F 37.4 °F 99% 29.86 in 4.0 mi NNW 17.3 mph 26.5 mph N/A   Overcast
10:13 PM 37.6 °F 26.9 °F 37.4 °F 99% 29.86 in 5.0 mi NNW 21.9 mph 27.6 mph N/A   Overcast
10:32 PM 37.6 °F 26.9 °F 37.4 °F 99% 29.86 in 3.0 mi NNW 21.9 mph 28.8 mph N/A   Overcast
10:52 PM 37.4 °F 26.9 °F 37.2 °F 99% 29.85 in 3.0 mi NNW 20.7 mph 27.6 mph N/A   Overcast
11:14 PM 37.4 °F 27.5 °F 37.0 °F 99% 29.85 in 4.0 mi NNW 18.4 mph 25.3 mph N/A   Overcast
11:33 PM 37.4 °F 27.2 °F 37.0 °F 99% 29.85 in 5.0 mi NNW 19.6 mph 27.6 mph N/A   Overcast
11:53 PM 37.4 °F 27.2 °F 37.0 °F 99% 29.85 in 5.0 mi NNW 19.6 mph 26.5 mph N/A   Overcast